Flag for U.S.A. Weather past 2 weeks in Stockton, California, U.S.A.

Now
78 °F

Sunny.


Feels Like: 79 °F
Forecast: 63 / 91 °F
Wind: 9 mph from Northwest

Location: Stockton Metropolitan Airport

Current Time: Aug 1, 2015 at 11:17:15 AM

Latest Report: Aug 1, 2015 at 10:55 AM


Visibility: 10 mi

Pressure: 29.96 "Hg

Humidity: 50%

Dew point: 58 °F

Location of StocktonLocation

Historic Weather in Stockton — Graph

°F

Stockton temperature yesterday

Maximum temperature yesterday: 92 °F (at 3:55 PM)
Minimum temperature yesterday: 66 °F (at 4:55 AM)
Average temperature yesterday: 78 °F

Past Weeks' High & Low Weather Summary

 TemperatureHumidityPressure
High105 °F (Jul 29, 2:55 PM)87% (Jul 26, 5:55 AM)30.09 "Hg (Jul 26, 5:55 AM)
Low58 °F (Jul 25, 5:55 AM)11% (Jul 24, 3:55 PM)29.69 "Hg (Jul 17, 5:55 PM)
Average78 °F46%29.89 "Hg
* Reported Jul 17 9:55 AM — Aug 1 9:55 AM, Stockton, Weather by CustomWeather, © 2015

Note: Actual official high and low records may vary slightly from our data, if they occured in-between our weather recording intervals... More about our weather records

Advertising

Stockton weather history for previous 24 hours

 ConditionsComfort  
Time TempWeatherWind HumidityBarometerVisibility
9:55 AM
Sat, Aug 1
75 °FSunny.9 mph54%29.97 "Hg10 mi
8:55 AM72 °FSunny.5 mph59%29.98 "Hg10 mi
7:55 AM68 °FSunny.7 mph70%29.97 "Hg10 mi
6:55 AM65 °FClear.3 mph76%29.95 "Hg10 mi
5:55 AM63 °FClear.7 mph78%29.94 "Hg10 mi
4:55 AM63 °FClear.7 mph78%29.91 "Hg10 mi
3:55 AM63 °FClear.3 mph78%29.92 "Hg10 mi
2:55 AM64 °FClear.No wind73%29.92 "Hg10 mi
1:55 AM65 °FClear.3 mph70%29.91 "Hg10 mi
12:55 AM70 °FClear.8 mph55%29.92 "Hg10 mi
11:55 PM
Fri, Jul 31
71 °FClear.10 mph53%29.92 "Hg10 mi
10:55 PM72 °FClear.14 mph49%29.91 "Hg10 mi
9:55 PM74 °FClear.15 mph37%29.90 "Hg10 mi
8:55 PM78 °FSunny.12 mph30%29.88 "Hg10 mi
7:55 PM82 °FSunny.15 mph27%29.87 "Hg10 mi
6:55 PM86 °FSunny.13 mph35%29.86 "Hg10 mi
5:55 PM88 °FSunny.14 mph36%29.86 "Hg10 mi
4:55 PM92 °FSunny.16 mph30%29.87 "Hg10 mi
3:55 PM92 °FSunny.14 mph29%29.88 "Hg10 mi
2:55 PM91 °FSunny.14 mph34%29.89 "Hg10 mi
1:55 PM91 °FSunny.12 mph33%29.92 "Hg10 mi
12:55 PM86 °FSunny.15 mph36%29.93 "Hg10 mi
11:55 AM86 °FSunny.8 mph39%29.95 "Hg10 mi
Weather by CustomWeather, © 2015

See weather overviewHow to use our weather pages